{"data":{"norad_id":68936,"intl_designator":"2026-098T","name":"KUIPER-00431","alt_names":[],"object_type":"PAYLOAD","status":"ACTIVE","operator":null,"country":"US","launch_date":"2026-04-30","launch_site_code":"FRGUI","launch_vehicle":null,"mission":null,"orbit_class":"UNKNOWN","rcs_meters":null,"size_class":null,"mass_kg":null,"dimensions":null,"purposes":[],"wikipedia_slug":null,"has_3d_model":false,"image_url":null,"decayed_at":null,"tle_current":{"epoch":"2026-09-20T00:15:25.119360Z","epoch_age_seconds":57801,"freshness":"FRESH","line1":"1 68936U 26098T   26263.01070740  .00001368  00000+0  20840-3 0  9999","line2":"2 68936  51.9008   3.8376 0000514 121.4693 238.6320 14.79932091 21451","mean_motion":14.79932091,"eccentricity":5.14e-5,"inclination_deg":51.9008,"raan_deg":3.8376,"arg_perigee_deg":121.4693,"mean_anomaly_deg":238.632,"bstar":0.0002084,"rev_number":2145,"period_min":97.301761936048,"perigee_km":629.17830414358,"apogee_km":629.89869318484,"semimajor_km":7007.6754986642,"source":"CELESTRAK","updated_at":"2026-09-20T09:00:24.580834Z"}}}